Location: Home
(42.5358°N, 72.7383°W)
Time: 20:07:57
(UTC-05:00)

Explorer 7 - Pass Details

Date: 08 December 2021
Orbit: 483 x 674 km, 50.3° (Epoch: 23 January)

Event Time Altitude Azimuth Distance (km) Brightness Sun altitude
Rises 06:57:58 0° 290° (WNW) 2,789 - -2.5°
Exits shadow 06:58:43 - 293° (WNW) 2,510 9.5 -2.4°
Reaches altitude 10° 07:00:34 10° 303° (WNW) 1,852 8.8 -2.1°
Maximum altitude 07:04:10 27° 2° (N) 1,057 8.0 -1.5°
Drops below altitude 10° 07:07:37 10° 62° (ENE) 1,756 9.9 -0.9°
Sets 07:10:01 0° 75° (ENE) 2,614 11.0 -0.6°
